�������l�o���
Date,Time,MP-1(��Sv/h),MP-2(��Sv/h),MP-3(��Sv/h),MP-4(��Sv/h),MP-5(��Sv/h),MP-6(��Sv/h),MP-7(��Sv/h),MP-8(��Sv/h),����,����(m/s),���J
2017/01/10,00:00,1.070,1.771,1.155,2.009,1.380,0.559,1.019,0.948,�쐼,3.3,��
2017/01/10,00:10,1.069,1.772,1.157,2.007,1.382,0.559,1.022,0.947,�쐼,3.0,��
2017/01/10,00:20,1.072,1.769,1.155,2.009,1.381,0.557,1.020,0.948,���쐼,2.3,��
2017/01/10,00:30,1.070,1.771,1.157,2.008,1.379,0.559,1.020,0.947,��쐼,3.2,��
2017/01/10,00:40,1.069,1.771,1.155,2.007,1.381,0.558,1.019,0.947,���쐼,2.3,��
2017/01/10,00:50,1.068,1.772,1.154,2.009,1.381,0.558,1.019,0.947,�쐼,3.7,��
2017/01/10,01:00,1.068,1.771,1.153,2.007,1.378,0.559,1.022,0.947,�쐼,4.0,��
2017/01/10,01:10,1.071,1.769,1.156,2.006,1.381,0.558,1.019,0.950,�쐼,4.7,��
2017/01/10,01:20,1.068,1.770,1.156,2.007,1.378,0.556,1.020,0.948,���쐼,3.6,��
2017/01/10,01:30,1.068,1.770,1.157,2.010,1.377,0.557,1.020,0.948,���쐼,2.5,��
2017/01/10,01:40,1.067,1.771,1.154,2.007,1.378,0.558,1.021,0.948,��,2.3,��
2017/01/10,01:50,1.068,1.771,1.153,2.009,1.379,0.559,1.018,0.948,���k��,2.9,��
2017/01/10,02:00,1.068,1.772,1.153,2.009,1.378,0.559,1.020,0.947,��,2.2,��
2017/01/10,02:10,1.069,1.767,1.155,2.008,1.378,0.557,1.019,0.946,�쐼,1.7,��
2017/01/10,02:20,1.070,1.770,1.155,2.005,1.377,0.559,1.020,0.947,�쐼,2.0,��
2017/01/10,02:30,1.067,1.768,1.154,2.004,1.378,0.558,1.020,0.948,��,1.9,��
2017/01/10,02:40,1.069,1.770,1.153,2.008,1.379,0.558,1.019,0.948,���쐼,1.2,��
2017/01/10,02:50,1.069,1.769,1.153,2.004,1.378,0.559,1.019,0.949,���k��,1.5,��
2017/01/10,03:00,1.066,1.770,1.152,2.007,1.381,0.559,1.019,0.947,���k��,2.2,��
2017/01/10,03:10,1.068,1.769,1.152,2.006,1.380,0.559,1.019,0.946,�k��,4.6,��
2017/01/10,03:20,1.068,1.771,1.155,2.009,1.379,0.559,1.019,0.949,�k��,9.0,��
2017/01/10,03:30,1.069,1.770,1.156,2.007,1.376,0.557,1.018,0.948,�k��,10.2,��
2017/01/10,03:40,1.069,1.770,1.153,2.010,1.380,0.559,1.020,0.948,�k��,8.6,��
2017/01/10,03:50,1.069,1.772,1.155,2.009,1.378,0.556,1.020,0.947,�k��,8.9,��
2017/01/10,04:00,1.069,1.771,1.154,2.010,1.377,0.555,1.020,0.947,�k��,7.7,��
2017/01/10,04:10,1.068,1.771,1.154,2.007,1.378,0.557,1.021,0.947,�k��,6.6,��
2017/01/10,04:20,1.068,1.772,1.157,2.010,1.377,0.558,1.019,0.947,�k�k��,6.7,��
2017/01/10,04:30,1.068,1.771,1.152,2.009,1.377,0.559,1.022,0.950,�k�k��,6.4,��
2017/01/10,04:40,1.069,1.771,1.154,2.009,1.380,0.556,1.020,0.948,�k��,8.3,��
2017/01/10,04:50,1.069,1.772,1.156,2.006,1.374,0.557,1.020,0.948,�k�k��,7.1,��
2017/01/10,05:00,1.065,1.770,1.154,2.008,1.378,0.556,1.020,0.949,�k�k��,8.2,��
2017/01/10,05:10,1.066,1.769,1.152,2.009,1.378,0.559,1.021,0.948,�k��,7.8,��
2017/01/10,05:20,1.065,1.769,1.156,2.008,1.376,0.559,1.021,0.947,�k��,6.0,��
2017/01/10,05:30,1.067,1.768,1.154,2.007,1.379,0.558,1.020,0.949,�k��,7.0,��
2017/01/10,05:40,1.065,1.773,1.154,2.011,1.376,0.556,1.020,0.948,�k��,7.9,��
2017/01/10,05:50,1.064,1.771,1.156,2.006,1.379,0.557,1.020,0.948,�k��,7.0,��
2017/01/10,06:00,1.068,1.769,1.153,2.008,1.377,0.558,1.023,0.948,�k�k��,7.3,��
2017/01/10,06:10,1.068,1.771,1.153,2.010,1.375,0.556,1.020,0.948,�k�k��,7.5,��
2017/01/10,06:20,1.066,1.771,1.152,2.007,1.377,0.558,1.021,0.946,�k�k��,7.2,��
2017/01/10,06:30,1.067,1.769,1.153,2.007,1.376,0.557,1.018,0.946,�k�k��,6.7,��
2017/01/10,06:40,1.062,1.770,1.154,2.008,1.380,0.557,1.017,0.947,�k�k��,6.6,��
2017/01/10,06:50,1.064,1.768,1.154,2.007,1.376,0.556,1.018,0.946,�k�k��,5.2,��
2017/01/10,07:00,1.066,1.767,1.153,2.006,1.376,0.557,1.019,0.947,�k�k��,3.4,��
2017/01/10,07:10,1.066,1.769,1.152,2.006,1.374,0.555,1.020,0.946,�k�k��,3.9,��
2017/01/10,07:20,1.063,1.766,1.153,2.009,1.377,0.556,1.016,0.947,�k�k��,3.9,��
2017/01/10,07:30,1.063,1.769,1.150,2.006,1.376,0.556,1.018,0.946,�k,3.1,��
2017/01/10,07:40,1.065,1.767,1.153,2.007,1.374,0.555,1.019,0.947,�k,3.7,��
2017/01/10,07:50,1.065,1.765,1.150,2.007,1.375,0.556,1.019,0.946,�k,3.6,��
2017/01/10,08:00,1.065,1.770,1.150,2.007,1.373,0.556,1.018,0.946,�k�k��,4.5,��
2017/01/10,08:10,1.064,1.767,1.151,2.007,1.374,0.555,1.020,0.947,�k�k��,4.5,��
2017/01/10,08:20,1.062,1.770,1.152,2.006,1.374,0.557,1.020,0.949,�k��,4.6,��
2017/01/10,08:30,1.064,1.768,1.152,2.012,1.376,0.557,1.022,0.948,�k�k��,3.5,��
2017/01/10,08:40,1.064,1.772,1.153,2.011,1.378,0.556,1.018,0.947,�k�k��,3.7,��
2017/01/10,08:50,1.064,1.773,1.155,2.007,1.380,0.557,1.018,0.949,�k,1.5,��
2017/01/10,09:00,1.067,1.773,1.155,2.012,1.380,0.557,1.017,0.948,�k�k��,3.0,��
2017/01/10,09:10,1.065,1.769,1.155,2.008,1.378,0.558,1.020,0.948,�k�k��,3.7,��
2017/01/10,09:20,1.066,1.770,1.155,2.008,1.381,0.556,1.021,0.949,�k�k��,4.1,��
2017/01/10,09:30,1.065,1.775,1.156,2.009,1.380,0.556,1.023,0.948,�k�k��,4.7,��
2017/01/10,09:40,1.063,1.772,1.157,2.005,1.383,0.557,1.021,0.949,�k�k��,3.7,��
2017/01/10,09:50,1.063,1.773,1.153,2.005,1.382,0.558,1.023,0.950,�k�k��,2.6,��
2017/01/10,10:00,1.067,1.774,1.160,2.001,1.382,0.558,1.021,0.946,�k��,2.2,��
2017/01/10,10:10,1.064,1.771,1.159,2.001,1.384,0.558,1.021,0.948,���k��,3.0,��
2017/01/10,10:20,1.066,1.772,1.157,2.006,1.383,0.559,1.020,0.949,���k��,2.6,��
2017/01/10,10:30,1.068,1.774,1.158,2.003,1.384,0.560,1.023,0.949,���k��,2.3,��
2017/01/10,10:40,1.067,1.773,1.158,2.005,1.384,0.556,1.018,0.950,��,2.2,��
2017/01/10,10:50,1.068,1.772,1.159,2.009,1.388,0.557,1.020,0.950,�쓌,1.7,��
2017/01/10,11:00,1.071,1.777,1.158,2.012,1.385,0.558,1.020,0.950,���쓌,1.1,��
2017/01/10,11:10,1.070,1.778,1.160,2.011,1.388,0.558,1.021,0.949,��쐼,2.3,��
2017/01/10,11:20,1.070,1.776,1.160,2.012,1.387,0.557,1.020,0.951,��,7.6,��
2017/01/10,11:30,1.073,1.779,1.161,2.010,1.390,0.560,1.020,0.949,��,8.9,��
2017/01/10,11:40,1.072,1.780,1.156,2.011,1.391,0.559,1.022,0.951,���쐼,6.1,��
2017/01/10,11:50,1.073,1.779,1.160,2.014,1.390,0.558,1.022,0.951,���쐼,4.4,��
2017/01/10,12:00,1.075,1.779,1.159,2.012,1.388,0.560,1.023,0.950,���쐼,5.6,��
2017/01/10,12:10,1.075,1.783,1.161,2.015,1.392,0.561,1.022,0.953,���쐼,8.1,��
2017/01/10,12:20,1.075,1.780,1.162,2.014,1.391,0.560,1.023,0.951,��,8.9,��
2017/01/10,12:30,1.075,1.778,1.162,2.016,1.390,0.559,1.024,0.953,���쐼,11.4,��
2017/01/10,12:40,1.076,1.780,1.162,2.014,1.391,0.559,1.023,0.952,���쐼,7.8,��
2017/01/10,12:50,1.079,1.784,1.163,2.014,1.392,0.562,1.025,0.951,��,9.9,��
2017/01/10,13:00,1.078,1.781,1.164,2.020,1.395,0.562,1.025,0.952,��,9.6,��
2017/01/10,13:10,1.076,1.782,1.164,2.016,1.394,0.562,1.025,0.952,���쐼,6.6,��
2017/01/10,13:20,1.076,1.784,1.166,2.018,1.394,0.560,1.027,0.953,���쐼,5.7,��
2017/01/10,13:30,1.078,1.781,1.166,2.019,1.396,0.563,1.025,0.951,���쐼,8.2,��
2017/01/10,13:40,1.081,1.781,1.162,2.018,1.398,0.562,1.029,0.949,���쐼,8.4,��
2017/01/10,13:50,1.083,1.778,1.167,2.019,1.396,0.565,1.027,0.950,���쐼,8.7,��
2017/01/10,14:00,1.082,1.784,1.166,2.023,1.394,0.563,1.026,0.949,��,7.4,��
2017/01/10,14:10,1.081,1.780,1.166,2.021,1.395,0.564,1.028,0.951,���쐼,5.3,��
2017/01/10,14:20,1.080,1.754,1.166,2.020,1.396,0.565,1.026,0.953,���쐼,6.5,��
2017/01/10,14:30,1.083,1.776,1.170,2.021,1.401,0.564,1.029,0.952,�쐼,6.2,��
2017/01/10,14:40,1.085,1.776,1.170,2.022,1.400,0.565,1.029,0.953,��쐼,7.7,��
2017/01/10,14:50,1.083,1.783,1.172,2.027,1.397,0.564,1.029,0.954,��쐼,6.7,��
2017/01/10,15:00,1.084,1.780,1.170,2.023,1.398,0.565,1.028,0.953,��쐼,5.4,��
2017/01/10,15:10,1.084,1.787,1.172,2.020,1.397,0.565,1.028,0.954,��,8.0,��
2017/01/10,15:20,1.082,1.786,1.171,2.020,1.397,0.565,1.028,0.954,��,8.2,��
2017/01/10,15:30,1.085,1.786,1.169,2.020,1.395,0.565,1.027,0.952,��,7.3,��
2017/01/10,15:40,1.083,1.786,1.171,2.022,1.396,0.564,1.027,0.953,��,7.4,��
2017/01/10,15:50,1.083,1.788,1.170,2.020,1.396,0.564,1.028,0.954,��,8.1,��
2017/01/10,16:00,1.082,1.788,1.171,2.023,1.400,0.564,1.028,0.954,��,7.5,��
2017/01/10,16:10,1.081,1.787,1.169,2.023,1.399,0.566,1.027,0.953,��,9.4,��
2017/01/10,16:20,1.084,1.790,1.171,2.023,1.400,0.565,1.028,0.954,��,10.2,��
2017/01/10,16:30,1.083,1.787,1.170,2.021,1.399,0.566,1.027,0.953,��,9.5,��
2017/01/10,16:40,1.083,1.788,1.172,2.022,1.404,0.564,1.029,0.954,��,10.5,��
2017/01/10,16:50,1.083,1.788,1.169,2.022,1.403,0.564,1.027,0.953,��,10.3,��
2017/01/10,17:00,1.084,1.787,1.168,2.020,1.401,0.567,1.028,0.955,��,9.2,��
2017/01/10,17:10,1.083,1.791,1.169,2.020,1.404,0.565,1.027,0.953,��쐼,8.1,��
2017/01/10,17:20,1.083,1.788,1.170,2.021,1.402,0.565,1.028,0.953,��쐼,8.1,��
2017/01/10,17:30,1.083,1.789,1.171,2.021,1.402,0.564,1.028,0.953,��쐼,6.5,��
2017/01/10,17:40,1.083,1.785,1.168,2.021,1.402,0.565,1.027,0.955,�쐼,4.3,��
2017/01/10,17:50,1.084,1.791,1.170,2.022,1.399,0.563,1.027,0.954,��쐼,4.9,��
2017/01/10,18:00,1.085,1.790,1.171,2.020,1.403,0.564,1.027,0.955,�쐼,4.1,��
2017/01/10,18:10,1.081,1.790,1.170,2.023,1.400,0.564,1.029,0.952,��,3.9,��
2017/01/10,18:20,1.084,1.788,1.170,2.025,1.399,0.564,1.028,0.953,���k��,6.2,��
2017/01/10,18:30,1.082,1.788,1.170,2.024,1.401,0.564,1.028,0.955,��,6.2,��
2017/01/10,18:40,1.084,1.789,1.170,2.021,1.401,0.563,1.027,0.953,���쐼,5.1,��
2017/01/10,18:50,1.083,1.788,1.169,2.023,1.401,0.563,1.028,0.953,���쐼,5.7,��
2017/01/10,19:00,1.083,1.788,1.167,2.023,1.401,0.565,1.025,0.953,��,5.8,��
2017/01/10,19:10,1.086,1.788,1.169,2.024,1.400,0.563,1.029,0.952,���k��,7.8,��
2017/01/10,19:20,1.082,1.787,1.169,2.021,1.399,0.563,1.024,0.950,���k��,8.6,��
2017/01/10,19:30,1.080,1.788,1.167,2.024,1.402,0.561,1.023,0.953,���k��,7.6,��
2017/01/10,19:40,1.081,1.789,1.169,2.020,1.404,0.563,1.024,0.951,���k��,7.1,��
2017/01/10,19:50,1.079,1.787,1.167,2.021,1.401,0.563,1.024,0.951,��,4.9,��
2017/01/10,20:00,1.083,1.789,1.167,2.022,1.400,0.563,1.025,0.951,��,3.4,��
2017/01/10,20:10,1.082,1.785,1.168,2.020,1.399,0.562,1.025,0.953,���쐼,3.6,��
2017/01/10,20:20,1.080,1.788,1.168,2.020,1.402,0.561,1.027,0.954,�쐼,4.1,��
2017/01/10,20:30,1.081,1.787,1.168,2.021,1.401,0.562,1.027,0.953,���쐼,4.4,��
2017/01/10,20:40,1.081,1.784,1.166,2.023,1.402,0.561,1.025,0.953,��,5.0,��
2017/01/10,20:50,1.082,1.789,1.168,2.020,1.399,0.561,1.026,0.951,��,5.2,��
2017/01/10,21:00,1.078,1.786,1.166,2.021,1.401,0.562,1.027,0.952,��,4.6,��
2017/01/10,21:10,1.078,1.787,1.167,2.019,1.401,0.563,1.026,0.955,���k��,2.9,��
2017/01/10,21:20,1.079,1.790,1.170,2.019,1.401,0.561,1.028,0.952,���쐼,1.7,��
2017/01/10,21:30,1.081,1.789,1.165,2.022,1.400,0.562,1.026,0.954,���k��,3.9,��
2017/01/10,21:40,1.080,1.786,1.167,2.021,1.401,0.562,1.025,0.952,���k��,2.5,��
2017/01/10,21:50,1.080,1.785,1.168,2.021,1.399,0.562,1.027,0.954,�k��,5.8,��
2017/01/10,22:00,1.082,1.787,1.168,2.022,1.402,0.562,1.024,0.952,���k��,7.0,��
2017/01/10,22:10,1.080,1.790,1.167,2.021,1.399,0.560,1.026,0.953,��,9.5,��
2017/01/10,22:20,1.079,1.788,1.166,2.022,1.398,0.560,1.027,0.950,��,7.5,��
2017/01/10,22:30,1.079,1.785,1.168,2.020,1.400,0.560,1.026,0.952,���k��,6.3,��
2017/01/10,22:40,1.076,1.784,1.166,2.016,1.399,0.561,1.026,0.951,�k,10.5,�L
2017/01/10,22:50,1.070,1.783,1.161,2.016,1.393,0.561,1.022,0.948,�k,10.0,�L
2017/01/10,23:00,1.070,1.777,1.161,2.015,1.393,0.559,1.022,0.950,�k,9.9,��
2017/01/10,23:10,1.068,1.778,1.159,2.017,1.394,0.559,1.020,0.949,�k�k��,10.2,��
2017/01/10,23:20,1.068,1.780,1.157,2.016,1.392,0.557,1.021,0.948,�k�k��,10.2,��
2017/01/10,23:30,1.069,1.781,1.159,2.014,1.394,0.557,1.021,0.950,�k�k��,9.8,��
2017/01/10,23:40,1.068,1.776,1.160,2.017,1.391,0.556,1.022,0.952,�k�k��,8.4,��
2017/01/10,23:50,1.066,1.777,1.157,2.014,1.393,0.557,1.021,0.951,�k�k��,7.7,��
